Time,TemperatureF,DewpointF,PressureIn,WindDirection,WindDirectionDegrees,WindSpeedMPH,WindSpeedGustMPH,Humidity,HourlyPrecipIn,Conditions,Clouds,dailyrainin,SoftwareType,DateUTC
2013-03-16 00:03:00,37.0,35.0,29.78,WSW,258,14.0,17.0,92,0.00,,,0.00,,2013-03-16 04:03:00,
2013-03-16 00:13:00,37.0,35.0,29.78,WSW,258,14.0,17.0,92,0.00,,,0.00,,2013-03-16 04:13:00,
2013-03-16 00:23:00,36.0,34.0,29.77,West,268,4.0,18.0,93,0.00,,,0.00,,2013-03-16 04:23:00,
2013-03-16 00:33:00,36.0,34.0,29.77,WNW,282,10.0,17.0,94,0.00,,,0.00,,2013-03-16 04:33:00,
2013-03-16 00:43:00,36.0,34.0,29.77,WNW,282,10.0,17.0,94,0.00,,,0.00,,2013-03-16 04:43:00,
2013-03-16 00:52:00,36.0,35.0,29.78,WNW,294,5.0,14.0,95,0.00,,,0.00,,2013-03-16 04:52:00,
2013-03-16 01:03:00,35.0,34.0,29.77,NNW,327,11.0,15.0,96,0.00,,,0.00,,2013-03-16 05:03:00,
2013-03-16 01:12:00,35.0,34.0,29.77,NNW,327,11.0,15.0,96,0.00,,,0.00,,2013-03-16 05:12:00,
2013-03-16 01:22:00,35.0,34.0,29.77,NNW,332,5.0,16.0,96,0.00,,,0.00,,2013-03-16 05:22:00,
2013-03-16 01:32:00,35.0,34.0,29.76,NW,304,12.0,15.0,97,0.01,,,0.01,,2013-03-16 05:32:00,
2013-03-16 01:42:00,35.0,34.0,29.76,NW,304,12.0,15.0,97,0.01,,,0.01,,2013-03-16 05:42:00,
2013-03-16 01:52:00,35.0,34.0,29.76,WNW,299,11.0,14.0,97,0.02,,,0.02,,2013-03-16 05:52:00,
2013-03-16 02:02:00,35.0,34.0,29.75,NW,305,3.0,15.0,97,0.02,,,0.02,,2013-03-16 06:02:00,
2013-03-16 02:12:00,35.0,34.0,29.75,NW,305,3.0,15.0,97,0.02,,,0.02,,2013-03-16 06:12:00,
2013-03-16 02:22:00,35.0,34.0,29.76,NW,321,6.0,11.0,97,0.02,,,0.02,,2013-03-16 06:22:00,
2013-03-16 02:32:00,35.0,34.0,29.75,NNW,327,3.0,17.0,97,0.02,,,0.03,,2013-03-16 06:32:00,
2013-03-16 02:42:00,35.0,34.0,29.75,NNW,327,3.0,17.0,97,0.02,,,0.03,,2013-03-16 06:42:00,
2013-03-16 02:52:00,34.0,33.0,29.75,WNW,286,6.0,15.0,97,0.01,,,0.03,,2013-03-16 06:52:00,
2013-03-16 03:02:00,34.0,34.0,29.75,NNW,328,10.0,15.0,98,0.02,,,0.04,,2013-03-16 07:02:00,
2013-03-16 03:12:00,34.0,34.0,29.75,NNW,328,10.0,15.0,98,0.02,,,0.04,,2013-03-16 07:12:00,
2013-03-16 03:22:00,34.0,34.0,29.75,NW,306,5.0,12.0,98,0.02,,,0.04,,2013-03-16 07:22:00,
2013-03-16 03:32:00,34.0,34.0,29.74,WNW,301,6.0,16.0,98,0.02,,,0.04,,2013-03-16 07:32:00,
2013-03-16 03:42:00,34.0,34.0,29.74,WNW,301,6.0,16.0,98,0.02,,,0.04,,2013-03-16 07:42:00,
2013-03-16 03:52:00,35.0,34.0,29.74,NW,305,6.0,12.0,98,0.01,,,0.04,,2013-03-16 07:52:00,
2013-03-16 04:03:00,34.0,34.0,29.72,NW,323,4.0,7.0,98,0.00,,,0.04,,2013-03-16 08:03:00,
2013-03-16 04:12:00,34.0,34.0,29.72,NW,323,4.0,7.0,98,0.00,,,0.04,,2013-03-16 08:12:00,
2013-03-16 04:23:00,34.0,34.0,29.72,NW,313,4.0,7.0,98,0.00,,,0.04,,2013-03-16 08:23:00,
2013-03-16 04:33:00,34.0,34.0,29.70,WNW,303,3.0,4.0,99,0.00,,,0.04,,2013-03-16 08:33:00,
2013-03-16 04:42:00,34.0,34.0,29.70,WNW,303,3.0,4.0,99,0.00,,,0.04,,2013-03-16 08:42:00,
2013-03-16 04:52:00,34.0,34.0,29.70,WNW,302,1.0,3.0,99,0.00,,,0.04,,2013-03-16 08:52:00,
2013-03-16 05:02:00,35.0,35.0,29.70,NW,309,0.0,0.0,99,0.00,,,0.04,,2013-03-16 09:02:00,
2013-03-16 05:12:00,35.0,35.0,29.70,NW,309,0.0,0.0,99,0.00,,,0.04,,2013-03-16 09:12:00,
2013-03-16 05:22:00,35.0,35.0,29.70,NW,309,0.0,4.0,99,0.00,,,0.04,,2013-03-16 09:22:00,
2013-03-16 05:33:00,35.0,35.0,29.69,NW,309,2.0,3.0,99,0.00,,,0.04,,2013-03-16 09:33:00,
2013-03-16 05:42:00,35.0,35.0,29.69,NW,309,2.0,3.0,99,0.00,,,0.04,,2013-03-16 09:42:00,
2013-03-16 05:52:00,35.0,35.0,29.68,NW,309,0.0,3.0,99,0.00,,,0.04,,2013-03-16 09:52:00,
2013-03-16 06:03:00,35.0,35.0,29.69,NW,309,0.0,0.0,99,0.00,,,0.04,,2013-03-16 10:03:00,
2013-03-16 06:12:00,35.0,35.0,29.69,NW,309,0.0,0.0,99,0.00,,,0.04,,2013-03-16 10:12:00,
2013-03-16 06:23:00,35.0,35.0,29.68,NW,309,0.0,0.0,99,0.00,,,0.04,,2013-03-16 10:23:00,
2013-03-16 06:32:00,35.0,35.0,29.69,SE,137,1.0,6.0,99,0.00,,,0.04,,2013-03-16 10:32:00,
2013-03-16 06:42:00,35.0,35.0,29.69,SE,137,1.0,6.0,99,0.00,,,0.04,,2013-03-16 10:42:00,
2013-03-16 06:52:00,34.0,34.0,29.69,SE,137,1.0,4.0,99,0.00,,,0.04,,2013-03-16 10:52:00,
2013-03-16 07:03:00,34.0,34.0,29.70,SE,137,0.0,0.0,99,0.00,,,0.04,,2013-03-16 11:03:00,
2013-03-16 07:12:00,34.0,34.0,29.70,SE,137,0.0,0.0,99,0.00,,,0.04,,2013-03-16 11:12:00,
2013-03-16 07:22:00,34.0,34.0,29.70,SE,137,0.0,0.0,99,0.00,,,0.04,,2013-03-16 11:22:00,
2013-03-16 07:33:00,34.0,34.0,29.69,SE,137,0.0,0.0,99,0.00,,,0.04,,2013-03-16 11:33:00,
2013-03-16 07:43:00,34.0,34.0,29.69,SE,137,0.0,0.0,99,0.00,,,0.04,,2013-03-16 11:43:00,
2013-03-16 07:52:00,34.0,34.0,29.69,SE,137,0.0,1.0,100,0.00,,,0.04,,2013-03-16 11:52:00,
2013-03-16 08:02:00,35.0,35.0,29.68,ESE,109,1.0,3.0,100,0.00,,,0.04,,2013-03-16 12:02:00,
2013-03-16 08:12:00,35.0,35.0,29.68,ESE,109,1.0,3.0,100,0.00,,,0.04,,2013-03-16 12:12:00,
2013-03-16 08:22:00,34.0,34.0,29.68,ESE,106,1.0,3.0,100,0.00,,,0.04,,2013-03-16 12:22:00,
2013-03-16 08:32:00,34.0,34.0,29.67,East,101,6.0,6.0,100,0.01,,,0.05,,2013-03-16 12:32:00,
2013-03-16 08:42:00,34.0,34.0,29.67,East,101,6.0,6.0,100,0.01,,,0.05,,2013-03-16 12:42:00,
2013-03-16 08:52:00,34.0,34.0,29.67,East,88,2.0,7.0,100,0.01,,,0.05,,2013-03-16 12:52:00,
2013-03-16 09:02:00,34.0,34.0,29.67,ENE,68,0.0,4.0,100,0.01,,,0.05,,2013-03-16 13:02:00,
2013-03-16 09:12:00,34.0,34.0,29.67,ENE,68,0.0,4.0,100,0.01,,,0.05,,2013-03-16 13:12:00,
2013-03-16 09:22:00,35.0,35.0,29.68,ENE,68,0.0,3.0,100,0.01,,,0.05,,2013-03-16 13:22:00,
2013-03-16 09:32:00,35.0,35.0,29.67,ENE,68,0.0,0.0,100,0.00,,,0.05,,2013-03-16 13:32:00,
2013-03-16 09:42:00,35.0,35.0,29.67,ENE,68,0.0,0.0,100,0.00,,,0.05,,2013-03-16 13:42:00,
2013-03-16 09:52:00,35.0,35.0,29.66,ENE,68,0.0,0.0,100,0.00,,,0.05,,2013-03-16 13:52:00,
2013-03-16 10:03:00,36.0,36.0,29.65,ENE,68,0.0,0.0,100,0.00,,,0.05,,2013-03-16 14:03:00,
2013-03-16 10:12:00,36.0,36.0,29.65,ENE,68,0.0,0.0,100,0.00,,,0.05,,2013-03-16 14:12:00,
2013-03-16 10:22:00,36.0,36.0,29.65,ENE,68,0.0,0.0,100,0.00,,,0.05,,2013-03-16 14:22:00,
2013-03-16 10:32:00,38.0,38.0,29.63,East,93,2.0,5.0,100,0.00,,,0.05,,2013-03-16 14:32:00,
2013-03-16 10:42:00,38.0,38.0,29.63,East,93,2.0,5.0,100,0.00,,,0.05,,2013-03-16 14:42:00,
2013-03-16 10:52:00,38.0,38.0,29.62,ENE,78,3.0,9.0,100,0.00,,,0.05,,2013-03-16 14:52:00,
2013-03-16 11:03:00,37.0,37.0,29.62,East,80,5.0,9.0,100,0.00,,,0.05,,2013-03-16 15:03:00,
2013-03-16 11:13:00,37.0,37.0,29.62,East,80,5.0,9.0,100,0.00,,,0.05,,2013-03-16 15:13:00,
2013-03-16 11:23:00,37.0,37.0,29.62,SE,128,2.0,7.0,100,0.00,,,0.05,,2013-03-16 15:23:00,
2013-03-16 11:33:00,38.0,38.0,29.63,East,89,0.0,5.0,100,0.00,,,0.05,,2013-03-16 15:33:00,
2013-03-16 11:43:00,38.0,38.0,29.63,East,89,0.0,5.0,100,0.00,,,0.05,,2013-03-16 15:43:00,
2013-03-16 11:53:00,37.0,37.0,29.62,East,86,0.0,0.0,100,0.00,,,0.05,,2013-03-16 15:53:00,
2013-03-16 12:03:00,37.0,37.0,29.62,East,87,0.0,0.0,100,0.00,,,0.05,,2013-03-16 16:03:00,
2013-03-16 12:13:00,37.0,37.0,29.62,East,87,0.0,0.0,100,0.00,,,0.05,,2013-03-16 16:13:00,
2013-03-16 12:23:00,37.0,37.0,29.61,East,86,0.0,0.0,100,0.00,,,0.05,,2013-03-16 16:23:00,
2013-03-16 12:33:00,38.0,38.0,29.60,East,86,0.0,0.0,100,0.00,,,0.05,,2013-03-16 16:33:00,
2013-03-16 12:42:00,38.0,38.0,29.60,East,86,0.0,0.0,100,0.00,,,0.05,,2013-03-16 16:42:00,
2013-03-16 12:53:00,38.0,38.0,29.60,East,86,0.0,0.0,100,0.00,,,0.05,,2013-03-16 16:53:00,
2013-03-16 13:03:00,38.0,38.0,29.59,East,86,0.0,0.0,100,0.00,,,0.05,,2013-03-16 17:03:00,
2013-03-16 13:13:00,38.0,38.0,29.59,East,86,0.0,0.0,100,0.00,,,0.05,,2013-03-16 17:13:00,
2013-03-16 13:23:00,38.0,38.0,29.59,East,86,0.0,2.0,100,0.00,,,0.05,,2013-03-16 17:23:00,
2013-03-16 13:33:00,38.0,38.0,29.59,East,86,0.0,0.0,100,0.00,,,0.05,,2013-03-16 17:33:00,
2013-03-16 13:42:00,38.0,38.0,29.59,East,86,0.0,0.0,100,0.00,,,0.05,,2013-03-16 17:42:00,
2013-03-16 13:52:00,38.0,38.0,29.59,East,86,0.0,0.0,100,0.00,,,0.05,,2013-03-16 17:52:00,
2013-03-16 14:03:00,38.0,38.0,29.60,East,86,0.0,0.0,100,0.00,,,0.05,,2013-03-16 18:03:00,
2013-03-16 14:13:00,38.0,38.0,29.60,East,86,0.0,0.0,100,0.00,,,0.05,,2013-03-16 18:13:00,
2013-03-16 14:23:00,38.0,38.0,29.59,East,86,0.0,0.0,100,0.00,,,0.05,,2013-03-16 18:23:00,
2013-03-16 14:33:00,38.0,38.0,29.59,WNW,290,0.0,4.0,100,0.00,,,0.05,,2013-03-16 18:33:00,
2013-03-16 14:43:00,38.0,38.0,29.59,WNW,290,0.0,4.0,100,0.00,,,0.05,,2013-03-16 18:43:00,
2013-03-16 14:52:00,38.0,38.0,29.59,WNW,297,0.0,3.0,100,0.00,,,0.05,,2013-03-16 18:52:00,
2013-03-16 15:02:00,39.0,39.0,29.59,WNW,297,1.0,1.0,100,0.00,,,0.05,,2013-03-16 19:02:00,
2013-03-16 15:12:00,39.0,39.0,29.59,WNW,297,1.0,1.0,100,0.00,,,0.05,,2013-03-16 19:12:00,
2013-03-16 15:22:00,40.0,40.0,29.59,NNW,331,2.0,4.0,100,0.00,,,0.05,,2013-03-16 19:22:00,
2013-03-16 15:33:00,43.0,43.0,29.60,NW,317,2.0,9.0,100,0.00,,,0.05,,2013-03-16 19:33:00,
2013-03-16 15:42:00,43.0,43.0,29.60,NW,317,2.0,9.0,100,0.00,,,0.05,,2013-03-16 19:42:00,
2013-03-16 15:52:00,43.0,43.0,29.60,NW,321,1.0,7.0,100,0.00,,,0.05,,2013-03-16 19:52:00,
2013-03-16 16:02:00,42.0,42.0,29.61,West,279,7.0,14.0,100,0.01,,,0.06,,2013-03-16 20:02:00,
2013-03-16 16:12:00,42.0,42.0,29.61,West,279,7.0,14.0,100,0.01,,,0.06,,2013-03-16 20:12:00,
2013-03-16 16:22:00,42.0,42.0,29.62,West,260,4.0,14.0,100,0.01,,,0.06,,2013-03-16 20:22:00,
2013-03-16 16:33:00,40.0,40.0,29.63,NW,318,8.0,14.0,100,0.02,,,0.07,,2013-03-16 20:33:00,
2013-03-16 16:42:00,40.0,40.0,29.63,NW,318,8.0,14.0,100,0.02,,,0.07,,2013-03-16 20:42:00,
2013-03-16 16:52:00,40.0,40.0,29.64,SW,236,2.0,10.0,100,0.02,,,0.07,,2013-03-16 20:52:00,
2013-03-16 17:02:00,39.0,39.0,29.65,SW,216,0.0,6.0,100,0.02,,,0.08,,2013-03-16 21:02:00,
2013-03-16 17:12:00,39.0,39.0,29.65,SW,216,0.0,6.0,100,0.02,,,0.08,,2013-03-16 21:12:00,
2013-03-16 17:23:00,39.0,39.0,29.65,SW,227,1.0,10.0,100,0.02,,,0.08,,2013-03-16 21:23:00,
2013-03-16 17:33:00,38.0,38.0,29.67,WSW,240,0.0,11.0,100,0.01,,,0.08,,2013-03-16 21:33:00,
2013-03-16 17:43:00,38.0,38.0,29.67,WSW,240,0.0,11.0,100,0.01,,,0.08,,2013-03-16 21:43:00,
2013-03-16 17:52:00,38.0,38.0,29.68,NW,307,0.0,11.0,100,0.01,,,0.08,,2013-03-16 21:52:00,
2013-03-16 18:03:00,37.0,37.0,29.69,West,275,0.0,12.0,100,0.00,,,0.08,,2013-03-16 22:03:00,
2013-03-16 18:13:00,37.0,37.0,29.69,West,275,0.0,12.0,100,0.00,,,0.08,,2013-03-16 22:13:00,
2013-03-16 18:23:00,37.0,37.0,29.69,NNW,328,5.0,14.0,100,0.00,,,0.08,,2013-03-16 22:23:00,
2013-03-16 18:33:00,36.0,36.0,29.71,NNW,333,2.0,11.0,100,0.00,,,0.08,,2013-03-16 22:33:00,
2013-03-16 18:42:00,36.0,36.0,29.71,NNW,333,2.0,11.0,100,0.00,,,0.08,,2013-03-16 22:42:00,
2013-03-16 18:52:00,36.0,36.0,29.72,NNW,334,9.0,13.0,100,0.00,,,0.08,,2013-03-16 22:52:00,
2013-03-16 19:02:00,36.0,36.0,29.72,WNW,301,5.0,17.0,100,0.00,,,0.08,,2013-03-16 23:02:00,
2013-03-16 19:13:00,36.0,36.0,29.72,WNW,301,5.0,17.0,100,0.00,,,0.08,,2013-03-16 23:13:00,
2013-03-16 19:23:00,35.0,35.0,29.73,West,260,2.0,14.0,100,0.00,,,0.08,,2013-03-16 23:23:00,
2013-03-16 19:33:00,35.0,35.0,29.74,WSW,241,4.0,15.0,100,0.00,,,0.08,,2013-03-16 23:33:00,
2013-03-16 19:42:00,35.0,35.0,29.74,WSW,241,4.0,15.0,100,0.00,,,0.08,,2013-03-16 23:42:00,
2013-03-16 19:52:00,35.0,35.0,29.75,WSW,257,6.0,14.0,100,0.00,,,0.08,,2013-03-16 23:52:00,
2013-03-16 20:02:00,34.0,34.0,29.76,WNW,284,4.0,14.0,100,0.00,,,0.08,,2013-03-17 00:02:00,
2013-03-16 20:12:00,34.0,34.0,29.76,WNW,284,4.0,14.0,100,0.00,,,0.08,,2013-03-17 00:12:00,
2013-03-16 20:22:00,34.0,34.0,29.77,WNW,292,5.0,17.0,100,0.00,,,0.08,,2013-03-17 00:22:00,
2013-03-16 20:33:00,33.0,33.0,29.79,NW,317,11.0,12.0,100,0.00,,,0.08,,2013-03-17 00:33:00,
2013-03-16 20:42:00,33.0,33.0,29.79,NW,317,11.0,12.0,100,0.00,,,0.08,,2013-03-17 00:42:00,
2013-03-16 20:52:00,33.0,33.0,29.80,West,262,7.0,17.0,100,0.00,,,0.08,,2013-03-17 00:52:00,
2013-03-16 21:03:00,33.0,33.0,29.81,NW,322,2.0,12.0,100,0.01,,,0.09,,2013-03-17 01:03:00,
2013-03-16 21:12:00,33.0,33.0,29.81,NW,322,2.0,12.0,100,0.01,,,0.09,,2013-03-17 01:12:00,
2013-03-16 21:22:00,32.0,32.0,29.82,NW,315,5.0,14.0,100,0.01,,,0.09,,2013-03-17 01:22:00,
2013-03-16 21:32:00,32.0,32.0,29.82,WNW,295,9.0,14.0,100,0.01,,,0.09,,2013-03-17 01:32:00,
2013-03-16 21:42:00,32.0,32.0,29.82,WNW,295,9.0,14.0,100,0.01,,,0.09,,2013-03-17 01:42:00,
2013-03-16 21:52:00,32.0,32.0,29.83,West,272,12.0,14.0,100,0.01,,,0.09,,2013-03-17 01:52:00,
2013-03-16 22:03:00,31.0,31.0,29.83,West,268,2.0,18.0,100,0.00,,,0.09,,2013-03-17 02:03:00,
2013-03-16 22:13:00,31.0,31.0,29.83,West,268,2.0,18.0,100,0.00,,,0.09,,2013-03-17 02:13:00,
2013-03-16 22:22:00,31.0,31.0,29.85,NW,309,2.0,16.0,100,0.00,,,0.09,,2013-03-17 02:22:00,
2013-03-16 22:33:00,31.0,31.0,29.85,NNW,327,2.0,15.0,100,0.00,,,0.09,,2013-03-17 02:33:00,
2013-03-16 22:43:00,31.0,31.0,29.85,NNW,327,2.0,15.0,100,0.00,,,0.09,,2013-03-17 02:43:00,
2013-03-16 22:52:00,31.0,31.0,29.85,SSW,213,2.0,11.0,100,0.00,,,0.09,,2013-03-17 02:52:00,
2013-03-16 23:03:00,31.0,31.0,29.85,West,280,0.0,7.0,100,0.00,,,0.09,,2013-03-17 03:03:00,
2013-03-16 23:12:00,31.0,31.0,29.85,West,280,0.0,7.0,100,0.00,,,0.09,,2013-03-17 03:12:00,
2013-03-16 23:23:00,31.0,31.0,29.86,NNW,329,2.0,9.0,100,0.00,,,0.09,,2013-03-17 03:23:00,
2013-03-16 23:34:00,31.0,31.0,29.85,WNW,285,4.0,12.0,100,0.00,,,0.09,,2013-03-17 03:34:00,
2013-03-16 23:43:00,31.0,31.0,29.85,WNW,285,4.0,12.0,100,0.00,,,0.09,,2013-03-17 03:43:00,
2013-03-16 23:52:00,31.0,31.0,29.85,SW,236,4.0,13.0,100,0.00,,,0.09,,2013-03-17 03:52:00,